QPF
0.10 0.12 0.13 0.17 0.23 0.22 0.14 0.09 0.07 0.05 0.03 0.02 0.02 0.02 0.04 0.08 0.12 0.15 0.11 0.07 0.03 0.02 0.01 0.01 0.02 0.04 0.03 0.02 0.02 0.03 0.03 0.04 0.04 0.04 0.03 0.02 0.01 0.01 0.01 0.01 0.01 0.01 0.02 0.03 0.04 0.05 0.04 0.04 0.05
0.07 0.09 0.16 0.21 0.22 0.18 0.12 0.08 0.08 0.06 0.03 0.02 0.02 0.02 0.02 0.03 0.05 0.06 0.11 0.09 0.03 0.02 0.03 0.02 0.02 0.03 0.03 0.02 0.03 0.04 0.03 0.03 0.02 0.02 0.01 0.01 0.01 0.00 0.00 0.01 0.01 0.01 0.02 0.02 0.03 0.04 0.04 0.04 0.04
0.07 0.07 0.14 0.23 0.19 0.13 0.12 0.08 0.05 0.02 0.01 0.01 0.01 0.02 0.03 0.04 0.05 0.07 0.09 0.04 0.01 0.02 0.03 0.02 0.01 0.02 0.01 0.02 0.02 0.02 0.01 0.01 0.02 0.01 0.01 0.00 0.00 0.00 0.01 0.01 0.01 0.01 0.02 0.02 0.02 0.03 0.04 0.04 0.03
0.19 0.17 0.16 0.20 0.14 0.08 0.06 0.05 0.03 0.02 0.01 0.01 0.01 0.03 0.04 0.04 0.03 0.03 0.04 0.01 0.01 0.01 0.01 0.01 0.01 0.01 0.01 0.01 0.01 0.01 0.00 0.00 0.01 0.01 0.01 0.00 0.00 0.01 0.01 0.01 0.01 0.01 0.02 0.01 0.02 0.02 0.03 0.04 0.03
0.23 0.26 0.25 0.20 0.12 0.07 0.02 0.01 0.01 0.02 0.01 0.01 0.01 0.03 0.04 0.05 0.02 0.02 0.01 0.01 0.01 0.00 0.00 0.00 0.00 0.01 0.01 0.01 0.01 0.01 0.00 0.00 0.00 0.00 0.00 0.00 0.00 0.00 0.00 0.00 0.00 0.01 0.01 0.02 0.02 0.02 0.03 0.03 0.02
0.24 0.23 0.25 0.21 0.14 0.08 0.02 0.01 0.01 0.03 0.02 0.01 0.01 0.03 0.04 0.05 0.02 0.01 0.02 0.00 0.00 0.00 0.00 0.00 0.00 0.00 0.01 0.01 0.00 0.00 0.00 0.00 0.00 0.00 0.00 0.00 0.00 0.00 0.00 0.00 0.00 0.00 0.01 0.02 0.02 0.02 0.01 0.01 0.01
0.20 0.20 0.19 0.15 0.12 0.10 0.03 0.01 0.02 0.03 0.03 0.02 0.01 0.01 0.03 0.03 0.01 0.00 0.00 0.00 0.00 0.00 0.00 0.00 0.00 0.00 0.00 0.01 0.00 0.00 0.00 0.00 0.00 0.00 0.00 0.00 0.00 0.00 0.00 0.00 0.00 0.00 0.00 0.00 0.01 0.01 0.01 0.01 0.01
0.10 0.16 0.14 0.11 0.12 0.10 0.02 0.01 0.01 0.02 0.02 0.00 0.00 0.01 0.02 0.02 0.00 0.00 0.00 0.00 0.00 0.00 0.00 0.00 0.00 0.01 0.01 0.00 0.00 0.00 0.00 0.00 0.00 0.00 0.00 0.00 0.00 0.00 0.00 0.00 0.00 0.00 0.00 0.00 0.00 0.00 0.00 0.00 0.00
0.06 0.15 0.16 0.11 0.10 0.06 0.01 0.01 0.00 0.00 0.00 0.00 0.00 0.00 0.00 0.00 0.00 0.01 0.01 0.00 0.00 0.00 0.00 0.00 0.00 0.00 0.00 0.00 0.00 0.00 0.00 0.00 0.00 0.00 0.00 0.00 0.00 0.00 0.00 0.00 0.00 0.00 0.00 0.00 0.00 0.00 0.00 0.00 0.00
0.09 0.16 0.11 0.06 0.05 0.03 0.01 0.00 0.00 0.01 0.01 0.00 0.00 0.00 0.00 0.00 0.00 0.01 0.01 0.00 0.00 0.00 0.00 0.00 0.00 0.00 0.00 0.00 0.00 0.00 0.00 0.00 0.00 0.00 0.00 0.00 0.00 0.00 0.00 0.00 0.00 0.00 0.00 0.00 0.00 0.00 0.00 0.00 0.01
0.07 0.10 0.05 0.05 0.03 0.01 0.00 0.00 0.00 0.01 0.01 0.01 0.01 0.00 0.01 0.01 0.00 0.00 0.00 0.00 0.00 0.00 0.00 0.00 0.00 0.00 0.00 0.00 0.00 0.00 0.00 0.00 0.00 0.00 0.00 0.00 0.00 0.00 0.00 0.00 0.00 0.00 0.00 0.00 0.00 0.00 0.00 0.00 0.01
0.05 0.05 0.03 0.02 0.01 0.01 0.01 0.01 0.00 0.01 0.01 0.01 0.00 0.00 0.01 0.01 0.00 0.00 0.00 0.00 0.00 0.00 0.00 0.00 0.00 0.00 0.00 0.00 0.00 0.00 0.00 0.00 0.00 0.00 0.00 0.00 0.00 0.00 0.00 0.00 0.00 0.00 0.00 0.00 0.00 0.01 0.01 0.01 0.01
0.03 0.02 0.02 0.01 0.01 0.01 0.01 0.01 0.01 0.00 0.00 0.00 0.00 0.01 0.01 0.01 0.00 0.00 0.00 0.00 0.00 0.00 0.00 0.00 0.00 0.00 0.00 0.00 0.00 0.00 0.00 0.00 0.00 0.00 0.00 0.00 0.00 0.00 0.00 0.00 0.00 0.00 0.00 0.00 0.00 0.00 0.00 0.01 0.01
0.02 0.01 0.01 0.01 0.01 0.01 0.01 0.00 0.00 0.00 0.00 0.00 0.01 0.01 0.01 0.01 0.00 0.00 0.00 0.00 0.00 0.00 0.00 0.00 0.00 0.00 0.00 0.00 0.00 0.00 0.00 0.00 0.00 0.00 0.00 0.00 0.00 0.00 0.00 0.00 0.00 0.00 0.00 0.00 0.00 0.00 0.01 0.01 0.01
0.01 0.01 0.01 0.01 0.01 0.01 0.01 0.01 0.00 0.00 0.00 0.01 0.01 0.01 0.02 0.01 0.01 0.01 0.01 0.01 0.00 0.00 0.00 0.00 0.00 0.00 0.00 0.00 0.00 0.00 0.00 0.00 0.00 0.00 0.00 0.00 0.00 0.00 0.00 0.00 0.00 0.00 0.00 0.00 0.00 0.01 0.01 0.01 0.01
0.01 0.03 0.04 0.02 0.01 0.01 0.02 0.04 0.01 0.01 0.00 0.01 0.02 0.02 0.02 0.01 0.01 0.01 0.01 0.00 0.00 0.00 0.00 0.00 0.00 0.00 0.00 0.00 0.00 0.00 0.00 0.00 0.00 0.00 0.00 0.00 0.00 0.00 0.00 0.00 0.00 0.00 0.01 0.01 0.01 0.01 0.02 0.03 0.03
0.04 0.06 0.05 0.02 0.01 0.01 0.02 0.04 0.01 0.01 0.01 0.01 0.02 0.02 0.02 0.01 0.01 0.01 0.00 0.00 0.00 0.00 0.00 0.00 0.00 0.00 0.00 0.00 0.00 0.00 0.00 0.00 0.00 0.00 0.00 0.00 0.00 0.00 0.00 0.00 0.00 0.00 0.00 0.01 0.01 0.01 0.02 0.04 0.05
0.06 0.04 0.04 0.02 0.01 0.01 0.01 0.03 0.01 0.01 0.01 0.02 0.02 0.02 0.01 0.01 0.01 0.00 0.00 0.00 0.00 0.00 0.00 0.00 0.00 0.00 0.00 0.00 0.00 0.00 0.00 0.00 0.00 0.00 0.00 0.00 0.00 0.00 0.00 0.00 0.00 0.00 0.01 0.01 0.01 0.01 0.02 0.03 0.05
0.04 0.03 0.03 0.02 0.01 0.01 0.01 0.02 0.01 0.01 0.01 0.02 0.02 0.01 0.00 0.00 0.00 0.00 0.00 0.00 0.00 0.00 0.00 0.00 0.00 0.00 0.00 0.00 0.00 0.00 0.00 0.00 0.00 0.00 0.00 0.00 0.00 0.00 0.00 0.00 0.00 0.00 0.01 0.02 0.02 0.01 0.01 0.03 0.03
0.04 0.05 0.05 0.02 0.01 0.01 0.01 0.02 0.02 0.02 0.02 0.01 0.01 0.01 0.01 0.00 0.00 0.00 0.00 0.00 0.00 0.00 0.00 0.00 0.00 0.00 0.00 0.00 0.00 0.00 0.00 0.00 0.00 0.00 0.00 0.00 0.00 0.00 0.00 0.00 0.00 0.00 0.01 0.01 0.02 0.02 0.02 0.03 0.04
0.04 0.06 0.04 0.02 0.01 0.02 0.02 0.02 0.02 0.02 0.02 0.00 0.00 0.00 0.01 0.01 0.00 0.00 0.00 0.00 0.00 0.00 0.00 0.00 0.00 0.00 0.00 0.00 0.00 0.00 0.00 0.00 0.00 0.00 0.00 0.00 0.00 0.00 0.00 0.00 0.00 0.00 0.00 0.01 0.01 0.02 0.02 0.04 0.06
0.04 0.05 0.03 0.02 0.02 0.02 0.01 0.04 0.03 0.01 0.01 0.00 0.00 0.00 0.00 0.00 0.00 0.00 0.00 0.00 0.00 0.00 0.00 0.00 0.00 0.00 0.00 0.00 0.00 0.00 0.00 0.00 0.00 0.00 0.00 0.00 0.00 0.00 0.00 0.00 0.00 0.00 0.00 0.00 0.00 0.01 0.03 0.05 0.06
0.04 0.03 0.02 0.02 0.01 0.02 0.01 0.01 0.02 0.00 0.00 0.00 0.00 0.00 0.00 0.00 0.00 0.00 0.00 0.00 0.00 0.00 0.00 0.00 0.00 0.00 0.00 0.00 0.00 0.00 0.00 0.00 0.00 0.00 0.00 0.00 0.00 0.00 0.00 0.00 0.00 0.00 0.00 0.00 0.00 0.01 0.02 0.04 0.05
0.02 0.01 0.02 0.02 0.01 0.02 0.01 0.00 0.01 0.00 0.00 0.00 0.00 0.00 0.00 0.00 0.00 0.00 0.00 0.01 0.01 0.00 0.00 0.00 0.00 0.00 0.00 0.00 0.00 0.00 0.00 0.00 0.00 0.00 0.00 0.00 0.00 0.00 0.00 0.00 0.00 0.00 0.00 0.00 0.01 0.01 0.01 0.02 0.02
0.01 0.01 0.03 0.04 0.04 0.04 0.01 0.00 0.00 0.00 0.00 0.00 0.00 0.00 0.00 0.00 0.00 0.00 0.00 0.00 0.00 0.00 0.00 0.00 0.00 0.00 0.00 0.00 0.00 0.00 0.00 0.00 0.00 0.00 0.00 0.00 0.00 0.00 0.00 0.00 0.00 0.00 0.00 0.01 0.01 0.01 0.01 0.01 0.03
0.01 0.02 0.04 0.05 0.05 0.03 0.00 0.00 0.00 0.00 0.00 0.00 0.00 0.00 0.00 0.00 0.00 0.00 0.00 0.00 0.00 0.00 0.00 0.00 0.00 0.00 0.00 0.00 0.00 0.00 0.00 0.00 0.00 0.00 0.00 0.00 0.00 0.00 0.00 0.00 0.00 0.00 0.00 0.01 0.01 0.01 0.00 0.01 0.01
0.01 0.01 0.02 0.02 0.04 0.02 0.00 0.00 0.00 0.00 0.00 0.00 0.00 0.00 0.00 0.00 0.00 0.00 0.00 0.00 0.00 0.00 0.00 0.00 0.00 0.00 0.00 0.00 0.00 0.00 0.00 0.00 0.00 0.00 0.00 0.00 0.00 0.00 0.00 0.00 0.00 0.00 0.00 0.00 0.01 0.00 0.00 0.00 0.00
0.01 0.01 0.02 0.03 0.03 0.02 0.01 0.00 0.00 0.00 0.00 0.00 0.00 0.00 0.00 0.00 0.00 0.00 0.00 0.00 0.00 0.00 0.00 0.00 0.00 0.00 0.00 0.00 0.00 0.00 0.00 0.00 0.00 0.00 0.00 0.00 0.00 0.00 0.00 0.00 0.00 0.00 0.00 0.00 0.01 0.01 0.00 0.00 0.01
0.00 0.00 0.00 0.01 0.01 0.01 0.01 0.00 0.00 0.00 0.00 0.00 0.00 0.00 0.00 0.00 0.00 0.00 0.00 0.00 0.00 0.00 0.00 0.00 0.00 0.00 0.00 0.00 0.00 0.00 0.00 0.00 0.00 0.00 0.00 0.00 0.00 0.00 0.00 0.00 0.00 0.00 0.00 0.00 0.00 0.01 0.01 0.00 0.00
0.00 0.00 0.00 0.00 0.00 0.00 0.00 0.00 0.00 0.00 0.00 0.00 0.00 0.00 0.00 0.00 0.00 0.00 0.00 0.00 0.00 0.00 0.00 0.00 0.00 0.00 0.00 0.00 0.00 0.00 0.00 0.00 0.00 0.00 0.00 0.00 0.00 0.00 0.00 0.00 0.00 0.00 0.00 0.00 0.00 0.00 0.00 0.00 0.00
MSLP
1009.69 1010.43 1011.28 1012.09 1012.72 1013.07 1013.10 1012.83 1012.33 1011.72 1011.13 1010.66 1010.38 1010.30 1010.40 1010.61 1010.85 1011.05 1011.17 1011.18 1011.11 1011.00 1010.90 1010.84 1010.87 1010.99 1011.18 1011.43 1011.69 1011.93 1012.12 1012.26 1012.34 1012.40 1012.45 1012.52 1012.60 1012.71 1012.83 1012.93 1013.00 1013.02 1013.00 1012.94 1012.85 1012.76 1012.68 1012.63 1012.60
1010.07 1010.91 1011.77 1012.49 1012.97 1013.12 1012.95 1012.49 1011.87 1011.20 1010.61 1010.20 1010.00 1010.02 1010.20 1010.46 1010.72 1010.92 1011.02 1011.02 1010.95 1010.85 1010.79 1010.79 1010.89 1011.08 1011.34 1011.63 1011.92 1012.17 1012.36 1012.49 1012.58 1012.64 1012.69 1012.74 1012.82 1012.90 1012.98 1013.04 1013.06 1013.05 1013.00 1012.92 1012.83 1012.74 1012.66 1012.61 1012.57
1010.56 1011.45 1012.26 1012.85 1013.14 1013.07 1012.68 1012.06 1011.33 1010.62 1010.06 1009.73 1009.63 1009.74 1010.00 1010.31 1010.59 1010.78 1010.87 1010.86 1010.79 1010.73 1010.72 1010.79 1010.97 1011.23 1011.55 1011.88 1012.18 1012.43 1012.61 1012.73 1012.81 1012.85 1012.89 1012.93 1012.98 1013.03 1013.07 1013.09 1013.08 1013.04 1012.97 1012.89 1012.80 1012.72 1012.65 1012.60 1012.55
1011.15 1012.04 1012.75 1013.18 1013.25 1012.96 1012.38 1011.61 1010.80 1010.09 1009.59 1009.35 1009.36 1009.57 1009.90 1010.25 1010.54 1010.72 1010.79 1010.77 1010.72 1010.69 1010.74 1010.88 1011.13 1011.46 1011.81 1012.16 1012.47 1012.70 1012.86 1012.96 1013.01 1013.03 1013.06 1013.08 1013.10 1013.12 1013.12 1013.11 1013.07 1013.01 1012.94 1012.87 1012.80 1012.73 1012.68 1012.63 1012.58
1011.83 1012.65 1013.22 1013.46 1013.32 1012.83 1012.08 1011.21 1010.37 1009.69 1009.27 1009.13 1009.25 1009.56 1009.94 1010.32 1010.61 1010.78 1010.82 1010.80 1010.76 1010.77 1010.87 1011.08 1011.38 1011.75 1012.13 1012.48 1012.76 1012.96 1013.08 1013.14 1013.16 1013.17 1013.17 1013.18 1013.18 1013.18 1013.16 1013.12 1013.07 1013.00 1012.94 1012.88 1012.83 1012.79 1012.75 1012.70 1012.64
1012.52 1013.23 1013.64 1013.67 1013.34 1012.68 1011.82 1010.90 1010.07 1009.46 1009.14 1009.11 1009.34 1009.72 1010.16 1010.55 1010.83 1010.97 1010.99 1010.96 1010.93 1010.96 1011.10 1011.35 1011.69 1012.07 1012.45 1012.77 1013.02 1013.17 1013.25 1013.27 1013.26 1013.25 1013.24 1013.23 1013.23 1013.21 1013.18 1013.13 1013.08 1013.02 1012.97 1012.93 1012.90 1012.88 1012.85 1012.79 1012.71
1013.14 1013.71 1013.94 1013.79 1013.29 1012.52 1011.59 1010.67 1009.89 1009.37 1009.17 1009.25 1009.57 1010.02 1010.49 1010.88 1011.14 1011.25 1011.25 1011.20 1011.17 1011.22 1011.38 1011.64 1011.99 1012.36 1012.71 1013.00 1013.19 1013.29 1013.33 1013.31 1013.28 1013.26 1013.25 1013.25 1013.25 1013.24 1013.21 1013.16 1013.10 1013.05 1013.01 1012.99 1012.98 1012.96 1012.93 1012.87 1012.76
1013.62 1014.02 1014.09 1013.79 1013.17 1012.32 1011.38 1010.49 1009.80 1009.39 1009.29 1009.49 1009.88 1010.38 1010.86 1011.25 1011.48 1011.56 1011.53 1011.47 1011.43 1011.48 1011.63 1011.89 1012.22 1012.57 1012.88 1013.11 1013.25 1013.31 1013.31 1013.27 1013.24 1013.22 1013.23 1013.25 1013.26 1013.26 1013.24 1013.19 1013.14 1013.09 1013.05 1013.04 1013.03 1013.01 1012.97 1012.88 1012.75
1013.89 1014.14 1014.06 1013.64 1012.94 1012.07 1011.15 1010.34 1009.74 1009.44 1009.44 1009.72 1010.17 1010.70 1011.18 1011.55 1011.76 1011.82 1011.77 1011.69 1011.64 1011.67 1011.82 1012.06 1012.35 1012.66 1012.92 1013.11 1013.21 1013.23 1013.21 1013.17 1013.15 1013.15 1013.18 1013.23 1013.26 1013.28 1013.27 1013.23 1013.17 1013.12 1013.08 1013.05 1013.03 1013.00 1012.93 1012.82 1012.66
1013.93 1014.05 1013.86 1013.36 1012.63 1011.77 1010.91 1010.18 1009.67 1009.47 1009.55 1009.89 1010.37 1010.91 1011.39 1011.74 1011.93 1011.97 1011.92 1011.83 1011.77 1011.80 1011.92 1012.13 1012.39 1012.65 1012.86 1013.01 1013.08 1013.09 1013.07 1013.04 1013.04 1013.07 1013.13 1013.21 1013.27 1013.31 1013.30 1013.27 1013.21 1013.14 1013.09 1013.04 1012.99 1012.93 1012.84 1012.70 1012.51
1013.76 1013.79 1013.52 1012.99 1012.27 1011.45 1010.66 1010.01 1009.59 1009.46 1009.60 1009.95 1010.44 1010.97 1011.43 1011.78 1011.96 1012.01 1011.96 1011.88 1011.82 1011.84 1011.95 1012.13 1012.36 1012.58 1012.76 1012.88 1012.94 1012.95 1012.93 1012.93 1012.95 1013.02 1013.11 1013.21 1013.29 1013.34 1013.35 1013.31 1013.25 1013.17 1013.10 1013.02 1012.95 1012.86 1012.73 1012.56 1012.34
1013.44 1013.41 1013.11 1012.58 1011.90 1011.15 1010.44 1009.87 1009.51 1009.42 1009.57 1009.93 1010.40 1010.90 1011.34 1011.67 1011.87 1011.93 1011.91 1011.85 1011.82 1011.85 1011.95 1012.12 1012.32 1012.52 1012.68 1012.79 1012.85 1012.87 1012.87 1012.89 1012.94 1013.02 1013.13 1013.24 1013.34 1013.40 1013.41 1013.38 1013.31 1013.23 1013.14 1013.04 1012.94 1012.82 1012.66 1012.46 1012.22
1013.06 1012.99 1012.69 1012.19 1011.57 1010.90 1010.27 1009.77 1009.46 1009.39 1009.53 1009.84 1010.27 1010.73 1011.15 1011.47 1011.68 1011.78 1011.80 1011.79 1011.80 1011.85 1011.96 1012.13 1012.32 1012.51 1012.67 1012.79 1012.86 1012.89 1012.92 1012.95 1013.01 1013.10 1013.21 1013.33 1013.43 1013.49 1013.51 1013.48 1013.42 1013.34 1013.24 1013.13 1013.01 1012.86 1012.68 1012.46 1012.20
1012.67 1012.59 1012.31 1011.87 1011.32 1010.74 1010.20 1009.76 1009.49 1009.40 1009.50 1009.76 1010.12 1010.52 1010.90 1011.22 1011.45 1011.59 1011.66 1011.71 1011.77 1011.86 1012.00 1012.18 1012.39 1012.59 1012.77 1012.91 1013.00 1013.05 1013.09 1013.14 1013.19 1013.27 1013.37 1013.46 1013.55 1013.61 1013.64 1013.63 1013.58 1013.51 1013.42 1013.31 1013.18 1013.02 1012.82 1012.58 1012.32
1012.34 1012.24 1011.99 1011.62 1011.17 1010.69 1010.24 1009.87 1009.61 1009.51 1009.56 1009.74 1010.01 1010.34 1010.67 1010.97 1011.21 1011.39 1011.52 1011.63 1011.75 1011.89 1012.06 1012.28 1012.51 1012.74 1012.95 1013.12 1013.24 1013.32 1013.38 1013.42 1013.46 1013.51 1013.57 1013.64 1013.71 1013.76 1013.80 1013.80 1013.78 1013.74 1013.67 1013.57 1013.44 1013.28 1013.07 1012.83 1012.56
1012.05 1011.94 1011.74 1011.45 1011.11 1010.74 1010.39 1010.09 1009.86 1009.73 1009.72 1009.81 1009.98 1010.22 1010.49 1010.75 1010.99 1011.20 1011.37 1011.54 1011.70 1011.89 1012.11 1012.37 1012.64 1012.91 1013.16 1013.37 1013.54 1013.65 1013.72 1013.76 1013.78 1013.79 1013.81 1013.85 1013.89 1013.93 1013.97 1014.00 1014.01 1014.00 1013.96 1013.89 1013.77 1013.61 1013.41 1013.17 1012.90
1011.79 1011.68 1011.52 1011.33 1011.12 1010.89 1010.66 1010.43 1010.23 1010.08 1010.00 1009.99 1010.06 1010.20 1010.38 1010.59 1010.80 1011.01 1011.22 1011.42 1011.63 1011.86 1012.12 1012.41 1012.72 1013.04 1013.34 1013.61 1013.82 1013.98 1014.06 1014.10 1014.10 1014.08 1014.06 1014.06 1014.07 1014.10 1014.15 1014.20 1014.24 1014.27 1014.26 1014.21 1014.11 1013.97 1013.77 1013.54 1013.29
1011.52 1011.42 1011.34 1011.27 1011.20 1011.12 1011.02 1010.89 1010.73 1010.56 1010.41 1010.30 1010.25 1010.27 1010.35 1010.49 1010.66 1010.85 1011.06 1011.28 1011.51 1011.76 1012.05 1012.37 1012.72 1013.08 1013.44 1013.76 1014.03 1014.23 1014.35 1014.40 1014.39 1014.35 1014.29 1014.25 1014.24 1014.25 1014.30 1014.37 1014.44 1014.50 1014.53 1014.50 1014.42 1014.29 1014.11 1013.89 1013.66
1011.24 1011.17 1011.18 1011.25 1011.35 1011.44 1011.49 1011.46 1011.34 1011.17 1010.95 1010.74 1010.57 1010.47 1010.43 1010.48 1010.59 1010.74 1010.93 1011.14 1011.37 1011.63 1011.92 1012.26 1012.63 1013.02 1013.42 1013.80 1014.13 1014.38 1014.54 1014.61 1014.61 1014.56 1014.48 1014.41 1014.37 1014.38 1014.42 1014.50 1014.59 1014.68 1014.73 1014.72 1014.66 1014.54 1014.38 1014.18 1013.97
1010.96 1010.95 1011.08 1011.31 1011.60 1011.87 1012.06 1012.14 1012.07 1011.89 1011.62 1011.31 1011.02 1010.79 1010.64 1010.59 1010.62 1010.72 1010.87 1011.05 1011.26 1011.50 1011.78 1012.10 1012.47 1012.88 1013.31 1013.73 1014.10 1014.41 1014.62 1014.72 1014.74 1014.69 1014.61 1014.52 1014.46 1014.45 1014.49 1014.57 1014.68 1014.77 1014.84 1014.85 1014.81 1014.71 1014.56 1014.39 1014.21
1010.71 1010.81 1011.08 1011.49 1011.96 1012.41 1012.75 1012.92 1012.91 1012.72 1012.39 1012.00 1011.60 1011.26 1011.01 1010.86 1010.82 1010.85 1010.95 1011.09 1011.26 1011.46 1011.69 1011.98 1012.32 1012.71 1013.14 1013.58 1013.98 1014.33 1014.58 1014.72 1014.77 1014.73 1014.65 1014.56 1014.49 1014.46 1014.49 1014.57 1014.67 1014.78 1014.86 1014.89 1014.86 1014.78 1014.66 1014.51 1014.37
1010.57 1010.79 1011.22 1011.81 1012.46 1013.07 1013.54 1013.80 1013.83 1013.63 1013.26 1012.80 1012.31 1011.88 1011.54 1011.31 1011.20 1011.19 1011.23 1011.32 1011.43 1011.57 1011.74 1011.96 1012.24 1012.58 1012.98 1013.40 1013.80 1014.16 1014.44 1014.62 1014.69 1014.67 1014.60 1014.51 1014.43 1014.39 1014.40 1014.47 1014.58 1014.69 1014.78 1014.83 1014.83 1014.78 1014.69 1014.58 1014.47
1010.55 1010.92 1011.51 1012.26 1013.07 1013.81 1014.38 1014.71 1014.78 1014.58 1014.18 1013.67 1013.12 1012.62 1012.22 1011.95 1011.79 1011.73 1011.73 1011.77 1011.82 1011.88 1011.97 1012.09 1012.29 1012.55 1012.87 1013.24 1013.62 1013.97 1014.25 1014.44 1014.52 1014.52 1014.45 1014.36 1014.27 1014.22 1014.22 1014.28 1014.39 1014.51 1014.62 1014.70 1014.73 1014.72 1014.67 1014.60 1014.53
1010.68 1011.18 1011.91 1012.79 1013.71 1014.55 1015.20 1015.58 1015.67 1015.48 1015.08 1014.55 1013.98 1013.46 1013.03 1012.74 1012.56 1012.47 1012.44 1012.43 1012.41 1012.40 1012.39 1012.41 1012.49 1012.64 1012.87 1013.15 1013.47 1013.77 1014.03 1014.21 1014.29 1014.29 1014.22 1014.12 1014.02 1013.96 1013.95 1014.00 1014.11 1014.24 1014.37 1014.49 1014.57 1014.60 1014.60 1014.57 1014.54
1010.91 1011.51 1012.34 1013.31 1014.30 1015.20 1015.89 1016.31 1016.43 1016.27 1015.88 1015.37 1014.82 1014.31 1013.90 1013.61 1013.43 1013.34 1013.29 1013.24 1013.17 1013.08 1012.97 1012.89 1012.85 1012.88 1012.98 1013.16 1013.39 1013.62 1013.83 1013.97 1014.03 1014.01 1013.93 1013.82 1013.70 1013.62 1013.60 1013.64 1013.75 1013.89 1014.06 1014.21 1014.34 1014.43 1014.48 1014.50 1014.51
1011.15 1011.82 1012.70 1013.70 1014.72 1015.64 1016.36 1016.80 1016.96 1016.84 1016.51 1016.05 1015.56 1015.11 1014.75 1014.49 1014.34 1014.25 1014.19 1014.12 1014.01 1013.85 1013.66 1013.48 1013.32 1013.23 1013.22 1013.29 1013.41 1013.55 1013.69 1013.78 1013.80 1013.75 1013.64 1013.50 1013.36 1013.26 1013.22 1013.25 1013.35 1013.50 1013.68 1013.87 1014.04 1014.18 1014.28 1014.35 1014.39
1011.30 1011.99 1012.87 1013.87 1014.87 1015.78 1016.51 1016.98 1017.19 1017.14 1016.89 1016.53 1016.14 1015.77 1015.48 1015.29 1015.18 1015.11 1015.06 1014.97 1014.83 1014.63 1014.38 1014.12 1013.88 1013.69 1013.57 1013.54 1013.56 1013.61 1013.67 1013.69 1013.66 1013.57 1013.42 1013.25 1013.08 1012.94 1012.86 1012.87 1012.95 1013.09 1013.28 1013.49 1013.68 1013.86 1014.00 1014.10 1014.17
1011.29 1011.96 1012.81 1013.75 1014.71 1015.59 1016.31 1016.82 1017.09 1017.13 1017.01 1016.77 1016.50 1016.25 1016.05 1015.93 1015.87 1015.84 1015.80 1015.71 1015.56 1015.34 1015.07 1014.77 1014.47 1014.22 1014.04 1013.92 1013.86 1013.84 1013.82 1013.77 1013.68 1013.54 1013.35 1013.13 1012.91 1012.73 1012.61 1012.57 1012.61 1012.72 1012.88 1013.07 1013.27 1013.45 1013.61 1013.72 1013.81
1011.11 1011.72 1012.49 1013.35 1014.24 1015.08 1015.79 1016.33 1016.68 1016.84 1016.86 1016.77 1016.64 1016.52 1016.43 1016.39 1016.38 1016.39 1016.37 1016.30 1016.16 1015.95 1015.68 1015.38 1015.08 1014.81 1014.60 1014.43 1014.32 1014.24 1014.17 1014.07 1013.92 1013.72 1013.48 1013.22 1012.95 1012.71 1012.53 1012.42 1012.39 1012.43 1012.54 1012.68 1012.83 1012.98 1013.11 1013.22 1013.31
1010.79 1011.32 1011.99 1012.76 1013.56 1014.34 1015.04 1015.62 1016.05 1016.33 1016.50 1016.57 1016.59 1016.60 1016.62 1016.66 1016.71 1016.76 1016.77 1016.73 1016.62 1016.45 1016.22 1015.96 1015.69 1015.44 1015.23 1015.07 1014.93 1014.82 1014.71 1014.56 1014.37 1014.13 1013.85 1013.53 1013.21 1012.90 1012.65 1012.45 1012.33 1012.28 1012.29 1012.34 1012.41 1012.48 1012.56 1012.62 1012.68
Thickness
5794 5795 5794 5782 5763 5752 5753 5766 5778 5783 5789 5801 5807 5803 5792 5783 5774 5761 5784 5798 5797 5793 5787 5783 5781 5779 5777 5775 5773 5772 5770 5768 5766 5764 5763 5761 5759 5758 5756 5755 5754 5753 5752 5752 5751 5750 5750 5750 5750
5794 5794 5786 5772 5754 5744 5752 5770 5775 5784 5795 5805 5805 5802 5793 5785 5789 5784 5788 5795 5796 5792 5786 5782 5778 5776 5774 5772 5771 5769 5767 5765 5764 5762 5760 5759 5757 5756 5754 5753 5752 5751 5750 5749 5748 5748 5747 5747 5748
5793 5792 5775 5764 5755 5751 5755 5773 5779 5791 5802 5802 5798 5797 5789 5784 5789 5786 5791 5795 5794 5789 5783 5778 5776 5774 5772 5770 5768 5767 5765 5763 5761 5760 5758 5757 5755 5753 5752 5751 5750 5748 5747 5747 5747 5746 5745 5745 5745
5788 5779 5772 5759 5755 5768 5773 5779 5787 5788 5796 5802 5798 5787 5786 5794 5792 5791 5795 5795 5790 5786 5780 5776 5774 5772 5770 5768 5766 5764 5763 5761 5759 5758 5756 5754 5753 5751 5750 5749 5748 5747 5746 5745 5744 5744 5743 5743 5743
5783 5769 5758 5753 5759 5774 5785 5790 5792 5786 5789 5795 5793 5778 5775 5790 5795 5795 5794 5793 5788 5784 5779 5775 5772 5770 5768 5766 5764 5762 5761 5759 5757 5756 5754 5752 5751 5750 5748 5747 5746 5745 5744 5743 5742 5741 5741 5741 5740
5767 5764 5748 5744 5757 5774 5785 5793 5791 5786 5789 5795 5790 5778 5774 5789 5790 5791 5792 5791 5788 5784 5779 5773 5771 5769 5766 5764 5762 5760 5759 5757 5755 5754 5752 5750 5749 5748 5747 5745 5744 5742 5741 5740 5739 5739 5738 5738 5738
5759 5754 5748 5750 5755 5765 5781 5794 5790 5785 5785 5791 5796 5778 5774 5783 5788 5790 5789 5787 5785 5783 5779 5774 5770 5768 5765 5763 5761 5759 5757 5756 5754 5752 5751 5750 5748 5747 5745 5743 5741 5740 5739 5738 5737 5736 5736 5736 5736
5767 5756 5750 5752 5752 5760 5783 5792 5794 5790 5787 5801 5801 5778 5771 5781 5788 5787 5785 5784 5782 5782 5780 5777 5773 5769 5765 5763 5761 5759 5757 5755 5753 5751 5751 5750 5748 5746 5744 5742 5740 5738 5737 5736 5735 5734 5734 5733 5733
5771 5749 5742 5752 5754 5763 5783 5785 5792 5801 5796 5797 5799 5792 5787 5789 5787 5781 5778 5777 5777 5778 5779 5778 5775 5771 5768 5765 5762 5760 5757 5755 5753 5751 5750 5749 5748 5747 5744 5741 5739 5737 5736 5734 5733 5732 5732 5732 5732
5761 5741 5749 5765 5770 5772 5781 5784 5790 5790 5786 5785 5787 5788 5789 5787 5782 5776 5773 5772 5772 5773 5776 5776 5774 5771 5769 5768 5763 5761 5758 5755 5754 5752 5750 5749 5748 5746 5744 5740 5738 5736 5734 5732 5731 5731 5730 5731 5731
5761 5752 5762 5771 5777 5781 5781 5785 5792 5783 5774 5781 5780 5781 5783 5782 5780 5778 5776 5775 5774 5775 5775 5775 5774 5772 5770 5766 5763 5761 5758 5755 5754 5752 5750 5748 5746 5744 5742 5739 5736 5734 5733 5731 5730 5729 5729 5729 5730
5760 5761 5769 5773 5779 5781 5781 5783 5784 5783 5783 5794 5792 5789 5785 5781 5779 5779 5778 5776 5775 5773 5773 5774 5774 5772 5769 5765 5763 5761 5758 5754 5752 5750 5748 5746 5743 5741 5739 5738 5735 5733 5731 5729 5727 5727 5727 5726 5726
5757 5761 5770 5776 5779 5781 5782 5780 5781 5784 5794 5798 5794 5789 5784 5783 5782 5783 5782 5779 5776 5772 5772 5772 5772 5770 5767 5764 5761 5760 5756 5753 5751 5748 5746 5744 5741 5739 5736 5735 5732 5730 5727 5725 5723 5723 5722 5721 5721
5761 5765 5768 5774 5777 5781 5777 5779 5781 5783 5794 5792 5789 5785 5785 5784 5783 5782 5780 5777 5776 5773 5772 5771 5769 5768 5766 5762 5760 5757 5755 5752 5750 5747 5745 5743 5740 5737 5734 5732 5729 5727 5724 5722 5720 5719 5718 5717 5717
5765 5759 5762 5770 5775 5779 5776 5766 5775 5787 5791 5785 5785 5784 5784 5784 5784 5781 5781 5780 5778 5775 5773 5769 5768 5766 5763 5760 5758 5756 5754 5751 5748 5745 5743 5741 5738 5735 5732 5728 5726 5723 5721 5719 5717 5715 5714 5713 5713
5756 5749 5743 5762 5773 5775 5763 5746 5773 5788 5785 5779 5781 5781 5780 5781 5784 5784 5784 5783 5781 5777 5773 5769 5767 5764 5760 5757 5755 5753 5751 5748 5746 5743 5740 5738 5736 5733 5730 5725 5722 5721 5718 5716 5713 5711 5708 5707 5707
5742 5733 5737 5754 5772 5772 5761 5749 5771 5786 5784 5779 5780 5780 5778 5778 5782 5784 5785 5784 5781 5778 5773 5768 5765 5761 5758 5755 5753 5750 5748 5745 5743 5741 5737 5735 5732 5730 5727 5724 5721 5718 5715 5712 5710 5707 5704 5702 5702
5729 5736 5740 5747 5765 5767 5759 5757 5771 5782 5781 5778 5779 5779 5778 5777 5779 5783 5784 5783 5781 5778 5774 5767 5763 5760 5756 5753 5751 5747 5745 5743 5741 5738 5735 5732 5729 5727 5725 5722 5719 5716 5712 5709 5706 5703 5702 5700 5700
5742 5742 5742 5751 5770 5764 5758 5759 5766 5776 5776 5775 5776 5776 5776 5778 5782 5783 5781 5780 5778 5775 5771 5766 5761 5758 5754 5749 5745 5741 5739 5739 5738 5736 5733 5730 5728 5725 5723 5720 5717 5715 5710 5707 5704 5700 5698 5697 5698
5742 5739 5741 5754 5769 5764 5758 5756 5767 5771 5772 5774 5774 5775 5775 5776 5777 5777 5778 5776 5774 5771 5769 5765 5761 5757 5753 5748 5746 5743 5740 5738 5737 5734 5732 5729 5726 5723 5721 5718 5715 5713 5709 5705 5702 5698 5694 5694 5695
5740 5741 5744 5749 5760 5765 5755 5745 5755 5765 5771 5774 5776 5776 5776 5774 5772 5772 5772 5771 5771 5768 5767 5765 5761 5756 5752 5748 5745 5742 5738 5735 5733 5731 5729 5728 5725 5722 5719 5717 5714 5712 5708 5703 5701 5697 5693 5689 5691
5733 5751 5755 5753 5748 5743 5750 5721 5740 5755 5759 5764 5767 5769 5770 5771 5772 5770 5769 5768 5768 5767 5767 5764 5760 5756 5751 5747 5742 5737 5732 5729 5730 5729 5728 5727 5725 5722 5719 5716 5713 5711 5708 5703 5700 5698 5694 5691 5687
5744 5757 5756 5753 5748 5743 5747 5731 5733 5752 5747 5754 5761 5764 5765 5767 5768 5766 5766 5766 5766 5765 5763 5761 5757 5753 5750 5746 5741 5736 5733 5731 5731 5730 5727 5726 5725 5722 5719 5716 5713 5710 5707 5704 5700 5697 5695 5692 5689
5756 5754 5753 5755 5748 5726 5743 5734 5724 5742 5748 5752 5758 5761 5762 5763 5764 5763 5763 5763 5761 5760 5759 5756 5752 5749 5747 5744 5740 5736 5732 5730 5728 5726 5724 5723 5723 5722 5720 5717 5713 5711 5707 5704 5701 5698 5696 5693 5691
5753 5740 5724 5719 5717 5721 5750 5739 5729 5749 5759 5757 5755 5756 5759 5759 5758 5757 5756 5755 5754 5754 5753 5752 5748 5744 5743 5741 5739 5737 5734 5731 5728 5726 5724 5722 5721 5720 5719 5717 5714 5711 5708 5705 5702 5699 5697 5695 5692
5748 5743 5720 5707 5709 5722 5746 5732 5737 5757 5761 5761 5759 5756 5756 5754 5754 5753 5753 5752 5751 5750 5750 5748 5746 5742 5741 5739 5738 5737 5735 5732 5729 5728 5726 5723 5722 5721 5720 5717 5714 5711 5709 5706 5703 5700 5698 5697 5694
5746 5744 5747 5733 5732 5725 5733 5734 5742 5754 5753 5753 5752 5751 5749 5750 5750 5750 5750 5751 5750 5749 5748 5747 5744 5741 5740 5738 5737 5736 5734 5731 5729 5728 5726 5724 5723 5722 5720 5717 5714 5712 5709 5706 5703 5700 5698 5697 5695
5757 5754 5745 5731 5715 5712 5722 5726 5727 5736 5741 5746 5745 5744 5745 5747 5747 5746 5746 5748 5748 5748 5747 5746 5743 5741 5739 5737 5735 5734 5732 5730 5728 5727 5724 5723 5722 5720 5718 5716 5714 5712 5710 5707 5703 5700 5698 5696 5694
5753 5753 5752 5745 5745 5725 5712 5721 5754 5747 5747 5745 5744 5744 5743 5743 5742 5742 5743 5744 5745 5745 5744 5742 5741 5738 5736 5735 5734 5732 5730 5729 5727 5724 5722 5721 5720 5718 5717 5715 5713 5711 5709 5707 5703 5700 5698 5695 5694
5765 5762 5759 5740 5741 5745 5728 5721 5760 5754 5752 5749 5745 5744 5743 5742 5741 5740 5740 5740 5739 5738 5738 5737 5737 5735 5733 5732 5731 5729 5727 5725 5723 5722 5721 5720 5718 5717 5716 5714 5712 5710 5708 5706 5703 5700 5698 5695 5693